www.pogodaiklimat.ru

Погода и климат >> Архив погоды >> Австралия >> Tibooburra Airport


ПОГОДА в Tibooburra Airport

  • Прогноз погоды в Tibooburra Airport
  • Монитор погоды в Tibooburra Airport
  • Климат города

АРХИВ ПОГОДЫ в Tibooburra Airport

Время (UTC), дата Ветер
(напр.,м/с)
 
Видим.   Явления Облачность Т
(С)
Тd
(С)
f
(%)
Тe
(С)
Тes
(С)
Комфортность P
(гПа)
Po
(гПа)
Тmin
(С)
Tmax
(С)
R
(мм)
S
(см)
07 17.02 З 6 н/о н/о +41.0 -12.5 3 +36 +36 очень
жарко
1005.3 985.5
08 17.02 ЮЗ 4 н/о н/о +40.2 -9.5 4 +36 +36 очень
жарко
1005.1 985.3
09 17.02 З 5 н/о н/о +38.8 -7.6 5 +34 +34 очень
жарко
1005.3 985.5
10 17.02 ЮЗ 7 н/о н/о +36.6 -1.4 9 +33 +33 жарко 1005.9 986.1
11 17.02 ЮЗ 6 н/о н/о +34.5 +5.0 16 +32 +32 жарко 1006.5 986.7
12 17.02 ЮЗ 5 н/о н/о +32.9 +4.6 17 +30 +30 жарко 1006.6 986.8
13 17.02 ЮЗ 3 н/о н/о +30.5 +4.3 19 +28 +28 жарко 1006.4 986.6 +42.0
14 17.02 З 4 н/о н/о +30.0 +4.6 20 +28 +28 жарко 1006.3 986.5
15 17.02 ЮЗ 4 н/о н/о +28.2 +4.5 22 +27 +27 жарко 1006.3 986.5
16 17.02 Ю 8 н/о н/о +28.7 +7.9 27 +28 +28 жарко 1006.4 986.6
17 17.02 Ю 7 н/о н/о +27.4 +6.8 27 +27 +27 жарко 1006.6 986.8
18 17.02 Ю 8 н/о н/о +25.6 +4.7 26 +25 +25 комфорт 1007.4 987.6
19 17.02 Ю 9 н/о н/о +24.2 +5.5 30 +24 +24 комфорт 1008.2 988.4
20 17.02 Ю 9 н/о н/о +22.9 +5.3 32 +23 +23 комфорт 1008.9 989.1
21 17.02 Ю 8 н/о н/о +22.7 +6.5 35 +23 +23 комфорт 1009.8 989.9
22 17.02 Ю 11 н/о н/о +23.3 +7.4 36 +24 +24 комфорт 1010.4 990.5
23 17.02 Ю 11 н/о н/о +24.3 +7.4 34 +25 +25 комфорт 1010.9 991.0
00 18.02 Ю 10 н/о н/о +25.6 +7.2 31 +26 +26 жарко 1011.0 991.1
01 18.02 Ю 8 н/о н/о +26.9 +7.4 29 +27 +27 жарко 1010.8 990.9 +22.6
02 18.02 Ю 9 н/о н/о +28.1 +8.4 29 +28 +28 жарко 1010.5 990.6
03 18.02 Ю 8 н/о н/о +29.4 +8.5 27 +29 +29 жарко 1010.3 990.4
04 18.02 ЮЗ 9 н/о н/о +29.4 +6.1 23 +28 +28 жарко 1009.9 990.0
05 18.02 ЮЗ 9 н/о н/о +29.8 +2.9 18 +28 +28 жарко 1009.4 989.5
06 18.02 ЮЗ 8 н/о н/о +30.0 +3.1 18 +28 +28 жарко 1009.0 989.2
07 18.02 Ю 8 н/о н/о +29.8 +2.1 17 +27 +27 жарко 1008.6 988.8
08 18.02 ЮЗ 9 н/о н/о +28.3 +0.9 17 +26 +26 жарко 1008.5 988.7
09 18.02 Ю 9 н/о н/о +26.8 +0.5 18 +25 +25 комфорт 1009.3 989.4
10 18.02 Ю 9 н/о н/о +25.6 +1.7 21 +24 +24 комфорт 1010.1 990.2
11 18.02 Ю 7 н/о н/о +24.7 +1.6 22 +24 +24 комфорт 1010.9 991.0
12 18.02 Ю 6 н/о н/о +23.9 +1.5 23 +23 +23 комфорт 1011.3 991.4
13 18.02 Ю 7 н/о н/о +23.2 +1.5 24 +22 +22 комфорт 1011.4 991.5 +32.9
14 18.02 Ю 5 н/о н/о +22.3 +0.8 24 +22 +22 комфорт 1011.5 991.6
15 18.02 Ю 5 н/о н/о +21.3 +1.6 27 +21 +21 комфорт 1011.4 991.5
16 18.02 Ю 6 н/о н/о +20.6 +2.0 29 +21 +21 комфорт 1011.2 991.3
17 18.02 Ю 6 н/о н/о +19.6 +2.0 31 +20 +20 1011.3 991.4
18 18.02 Ю 4 н/о н/о +18.5 +1.9 33 +18 +18 1011.6 991.7
19 18.02 Ю 5 н/о н/о +17.9 +1.8 34 +18 +18 1012.3 992.4
20 18.02 Ю 6 н/о н/о +17.5 +2.3 36 +17 +17 1012.8 992.9
21 18.02 Ю 7 н/о н/о +17.8 +2.5 36 +17 +17 1013.6 993.7
22 18.02 Ю 8 н/о н/о +19.1 +2.9 34 +19 +19 1014.0 994.1
23 18.02 Ю 7 н/о н/о +20.5 +3.3 32 +21 +21 комфорт 1014.5 994.5
00 19.02 Ю 7 н/о н/о +21.5 +2.2 28 +21 +21 комфорт 1014.7 994.7
01 19.02 Ю 6 н/о н/о +22.8 +2.3 26 +22 +22 комфорт 1014.3 994.3 +17.2
02 19.02 Ю 5 н/о н/о +23.6 +1.9 24 +23 +23 комфорт 1013.4 993.5
03 19.02 Ю 5 н/о н/о +24.8 +1.7 22 +24 +24 комфорт 1012.5 992.6
04 19.02 Ю 5 н/о н/о +24.3 +0.6 21 +23 +23 комфорт 1012.1 992.2
05 19.02 ЮЗ 7 н/о н/о +25.4 +0.1 19 +24 +24 комфорт 1011.6 991.7
06 19.02 Ю 4 н/о н/о +25.9 -1.0 17 +24 +24 комфорт 1011.1 991.2
07 19.02 ЮЗ 8 н/о н/о +25.6 -2.9 15 +23 +23 комфорт 1011.0 991.1
08 19.02 ЮЗ 7 н/о н/о +25.1 -4.2 14 +23 +23 комфорт 1011.4 991.5
09 19.02 Ю 7 н/о н/о +23.9 -3.4 16 +22 +22 комфорт 1011.9 992.0
10 19.02 Ю 6 н/о н/о +22.8 -3.5 17 +21 +21 комфорт 1012.6 992.7
11 19.02 ЮЗ 4 н/о н/о +21.7 -2.2 20 +21 +21 комфорт 1013.3 993.4
12 19.02 ЮЗ 4 н/о н/о +21.0 -1.5 22 +21 +21 комфорт 1013.4 993.5
13 19.02 З 4 н/о н/о +19.8 -0.8 25 +20 +20 1013.6 993.7 +26.7
14 19.02 ЮЗ 3 н/о н/о +18.4 -0.9 27 +19 +19 1013.6 993.7
15 19.02 ЮЗ 3 н/о н/о +18.0 -0.8 28 +18 +18 1013.6 993.7
16 19.02 ЮЗ 3 н/о н/о +17.6 -0.6 29 +18 +18 1013.6 993.7
17 19.02 ЮЗ 2 н/о н/о +16.8 0.0 32 +17 +17 1013.7 993.8
18 19.02 ЮЗ 2 н/о н/о +15.9 -0.3 33 +16 +16 1013.7 993.8
19 19.02 ЮЗ 2 н/о н/о +15.3 -0.1 35 +15 +15 1013.5 993.6
20 19.02 ЮЗ 2 н/о н/о +15.1 +0.5 37 +15 +15 1013.9 994.0
21 19.02 ЮЗ 3 н/о н/о +16.5 +0.6 34 +17 +17 1014.8 994.8
22 19.02 Ю 7 н/о н/о +19.9 +1.8 30 +20 +20 1015.6 995.6
23 19.02 ЮВ 7 н/о н/о +20.7 +3.0 31 +21 +21 комфорт 1015.9 995.9
00 20.02 ЮВ 5 н/о н/о +23.0 +3.0 27 +23 +23 комфорт 1016.0 996.0
01 20.02 В 4 н/о н/о +23.0 +2.5 26 +23 +23 комфорт 1015.6 995.6 +14.8
02 20.02 ЮВ 4 н/о н/о +24.1 +2.3 24 +23 +23 комфорт 1015.0 995.0
03 20.02 Ю 5 н/о н/о +25.1 +1.3 21 +24 +24 комфорт 1014.7 994.7
04 20.02 Ю 5 н/о н/о +26.1 0.0 18 +24 +24 комфорт 1013.9 994.0
05 20.02 ЮВ 3 н/о н/о +26.9 +0.6 18 +25 +25 комфорт 1013.2 993.3
06 20.02 В 4 н/о н/о +26.7 -0.3 17 +25 +25 комфорт 1012.6 992.7
07 20.02 ЮЗ 5 н/о н/о +27.6 -0.5 16 +25 +25 комфорт 1012.6 992.7
08 20.02 Ю 4 н/о н/о +27.2 +0.1 17 +25 +25 комфорт 1012.8 992.9
09 20.02 Ю 4 н/о н/о +26.2 +0.8 19 +24 +24 комфорт 1013.7 993.8
10 20.02 Ю 4 н/о н/о +25.3 +0.8 20 +24 +24 комфорт 1014.7 994.7
11 20.02 Ю 4 н/о н/о +24.2 +1.2 22 +23 +23 комфорт 1015.4 995.4
12 20.02 Ю 3 н/о н/о +23.0 +0.8 23 +22 +22 комфорт 1015.8 995.8
13 20.02 Ю 4 н/о н/о +22.3 +1.3 25 +22 +22 комфорт 1015.9 995.9 +28.7
14 20.02 ЮВ 5 н/о н/о +22.0 +0.5 24 +21 +21 комфорт 1015.5 995.5
15 20.02 ЮВ 6 н/о н/о +21.5 -0.5 23 +21 +21 комфорт 1015.0 995.0
16 20.02 ЮВ 4 н/о н/о +20.5 -0.7 24 +21 +21 комфорт 1015.2 995.2
17 20.02 ЮВ 5 н/о н/о +19.7 -0.9 25 +20 +20 1015.1 995.1
18 20.02 ЮВ 3 н/о н/о +18.5 -0.8 27 +19 +19 1015.2 995.2
19 20.02 ЮВ 3 н/о н/о +17.7 -1.0 28 +18 +18 1015.7 995.7
20 20.02 ЮВ 3 н/о н/о +17.4 -1.8 27 +17 +17 1016.4 996.4
21 20.02 ЮВ 3 н/о н/о +18.5 -1.9 25 +19 +19 1017.3 997.3
22 20.02 В 6 н/о н/о +21.6 -3.7 18 +21 +21 комфорт 1017.8 997.8
23 20.02 В 6 н/о н/о +24.2 -4.0 15 +22 +22 комфорт 1018.1 998.1
00 21.02 В 6 н/о н/о +26.9 -3.8 13 +24 +24 комфорт 1018.0 998.0
01 21.02 ЮВ 3 н/о н/о +27.5 -3.3 13 +25 +25 комфорт 1017.2 997.2 +17.3
02 21.02 ЮВ 4 н/о н/о +28.6 -3.6 12 +26 +26 жарко 1016.5 996.5
03 21.02 СВ 3 н/о н/о +29.6 -3.9 11 +26 +26 жарко 1015.5 995.5
04 21.02 Ю 3 н/о н/о +30.8 -4.3 10 +27 +27 жарко 1014.7 994.7
05 21.02 СВ 3 н/о н/о +31.6 -5.1 9 +28 +28 жарко 1013.7 993.8
06 21.02 Ю 3 н/о н/о +32.6 -4.3 9 +29 +29 жарко 1013.2 993.3
07 21.02 Ю 3 н/о н/о +31.9 -4.9 9 +28 +28 жарко 1012.8 992.9
08 21.02 В 4 н/о н/о +31.9 -4.9 9 +28 +28 жарко 1012.9 993.0
09 21.02 В 4 н/о н/о +30.5 -4.5 10 +27 +27 жарко 1013.5 993.6
10 21.02 В 4 н/о н/о +27.8 -4.2 12 +25 +25 комфорт 1013.6 993.7
11 21.02 В 3 н/о н/о +26.2 -2.4 15 +24 +24 комфорт 1014.1 994.2
12 21.02 ЮВ 3 н/о н/о +24.8 -2.7 16 +23 +23 комфорт 1014.1 994.2
13 21.02 ЮВ 2 н/о н/о +24.6 -2.0 17 +23 +23 комфорт 1013.8 993.9 +32.8
14 21.02 ЮВ 3 н/о н/о +23.8 -1.9 18 +22 +22 комфорт 1013.5 993.6
15 21.02 ЮВ 3 н/о н/о +22.9 -1.2 20 +22 +22 комфорт 1013.1 993.2
16 21.02 В 4 н/о н/о +21.7 -1.6 21 +21 +21 комфорт 1012.6 992.7
17 21.02 В 3 н/о н/о +21.0 -1.5 22 +21 +21 комфорт 1012.1 992.2
18 21.02 В 3 н/о н/о +20.2 -1.0 24 +21 +21 комфорт 1012.1 992.2
19 21.02 В 3 н/о н/о +20.7 -1.1 23 +21 +21 комфорт 1012.3 992.4
20 21.02 В 2 н/о н/о +20.5 -1.3 23 +21 +21 комфорт 1012.9 993.0
21 21.02 СВ 3 н/о н/о +21.8 -1.5 21 +21 +21 комфорт 1013.3 993.4
22 21.02 С 4 н/о н/о +25.6 -2.9 15 +23 +23 комфорт 1013.6 993.7
23 21.02 С 6 н/о н/о +29.8 -3.8 11 +26 +26 жарко 1013.9 994.0
00 22.02 С 7 н/о н/о +33.6 -3.6 9 +30 +30 жарко 1013.9 994.0
01 22.02 С 6 н/о н/о +35.1 -5.8 7 +31 +31 жарко 1013.4 993.5 +19.9
02 22.02 СЗ 5 н/о н/о +35.4 -7.6 6 +31 +31 жарко 1012.7 992.8
03 22.02 С 4 н/о н/о +36.7 -9.0 5 +32 +32 жарко 1011.9 992.0
04 22.02 С 5 н/о н/о +37.8 -8.3 5 +33 +33 жарко 1011.1 991.2
05 22.02 З 5 н/о н/о +38.1 -10.9 4 +33 +33 жарко 1010.2 990.3
06 22.02 С 6 н/о н/о +38.4 -10.7 4 +34 +34 очень
жарко
1009.8 989.9
07 22.02 СЗ 5 н/о н/о +38.1 -10.9 4 +33 +33 жарко 1009.7 989.8
08 22.02 Ю 2 н/о н/о +37.3 -11.4 4 +33 +33 жарко 1009.9 990.0
09 22.02 ЮЗ 2 н/о н/о +36.3 -9.3 5 +32 +32 жарко 1010.2 990.3
10 22.02 З 2 н/о н/о +33.2 -9.2 6 +29 +29 жарко 1011.0 991.1
11 22.02 штиль 0 н/о н/о +30.7 -9.0 7 +27 +27 жарко 1011.7 991.8
12 22.02 З 2 н/о н/о +29.8 -8.0 8 +26 +26 жарко 1012.1 992.2
13 22.02 З 3 н/о н/о +28.6 -8.8 8 +25 +25 комфорт 1012.3 992.4 +39.5
14 22.02 ЮЗ 3 н/о н/о +26.8 -8.7 9 +24 +24 комфорт 1012.4 992.5
15 22.02 ЮЗ 2 н/о н/о +27.0 -8.5 9 +24 +24 комфорт 1012.0 992.1
16 22.02 ЮЗ 3 н/о н/о +25.3 -8.5 10 +22 +22 комфорт 1011.7 991.8
17 22.02 ЮЗ 3 н/о н/о +25.9 -9.4 9 +23 +23 комфорт 1011.6 991.7
18 22.02 ЮЗ 2 н/о н/о +23.8 -8.4 11 +21 +21 комфорт 1011.7 991.8
19 22.02 ЮЗ 2 н/о н/о +25.0 -7.5 11 +22 +22 комфорт 1012.0 992.1
20 22.02 ЮЗ 2 н/о н/о +24.2 -8.1 11 +22 +22 комфорт 1012.6 992.7
21 22.02 ЮЗ 5 н/о н/о +23.9 -7.2 12 +22 +22 комфорт 1013.8 993.9
22 22.02 Ю 6 н/о н/о +26.1 -3.5 14 +24 +24 комфорт 1014.6 994.6
23 22.02 Ю 7 н/о н/о +28.8 +0.5 16 +26 +26 жарко 1015.5 995.5
00 23.02 Ю 7 н/о н/о +30.9 +1.3 15 +28 +28 жарко 1015.5 995.5
01 23.02 Ю 6 н/о н/о +33.7 +0.4 12 +30 +30 жарко 1015.3 995.3 +23.0
02 23.02 Ю 6 н/о н/о +35.6 -0.7 10 +32 +32 жарко 1014.9 994.9
03 23.02 Ю 6 н/о н/о +37.0 -2.7 8 +33 +33 жарко 1014.6 994.6
04 23.02 Ю 4 н/о н/о +38.0 -3.7 7 +34 +34 очень
жарко
1014.1 994.2
05 23.02 ЮВ 4 н/о н/о +38.9 -5.1 6 +35 +35 очень
жарко
1013.6 993.7
06 23.02 Ю 6 н/о н/о +39.1 -7.4 5 +35 +35 очень
жарко
1013.3 993.4
07 23.02 ЮЗ 8 н/о н/о +38.7 -7.6 5 +34 +34 очень
жарко
1013.3 993.4
08 23.02 Ю 6 н/о н/о +37.8 -8.3 5 +33 +33 жарко 1013.7 993.8
09 23.02 Ю 6 н/о н/о +36.1 -7.1 6 +32 +32 жарко 1014.1 994.2
10 23.02 ЮЗ 5 н/о н/о +33.8 -5.0 8 +30 +30 жарко 1014.8 994.8
11 23.02 ЮЗ 6 н/о н/о +32.6 -4.3 9 +29 +29 жарко 1015.3 995.3
12 23.02 Ю 6 н/о н/о +31.6 -1.2 12 +28 +28 жарко 1015.6 995.6
13 23.02 Ю 6 н/о н/о +30.3 +0.8 15 +28 +28 жарко 1016.1 996.1 +39.5
14 23.02 Ю 6 н/о н/о +29.8 +2.9 18 +28 +28 жарко 1016.1 996.1
15 23.02 Ю 7 н/о н/о +28.5 +4.1 21 +27 +27 жарко 1015.9 995.9
16 23.02 Ю 7 н/о н/о +27.7 +4.7 23 +26 +26 жарко 1015.7 995.7
17 23.02 Ю 8 н/о н/о +26.6 +5.0 25 +26 +26 жарко 1015.6 995.6
18 23.02 Ю 6 н/о н/о +25.6 +5.8 28 +25 +25 комфорт 1015.9 995.9
19 23.02 Ю 6 н/о н/о +24.9 +5.2 28 +24 +24 комфорт 1016.3 996.3
20 23.02 Ю 6 н/о н/о +24.4 +5.2 29 +24 +24 комфорт 1017.2 997.2
21 23.02 Ю 6 н/о н/о +24.6 +5.4 29 +24 +24 комфорт 1017.8 997.8
22 23.02 Ю 9 н/о н/о +26.0 +5.6 27 +25 +25 комфорт 1018.5 998.5
23 23.02 Ю 9 н/о н/о +28.2 +5.7 24 +27 +27 жарко 1018.7 998.7
00 24.02 Ю 9 н/о н/о +29.7 +5.7 22 +28 +28 жарко 1018.9 998.9
01 24.02 Ю 9 н/о н/о +31.5 +5.1 19 +29 +29 жарко 1018.5 998.5 +24.1
02 24.02 Ю 8 н/о н/о +33.4 +5.0 17 +31 +31 жарко 1017.6 997.6
03 24.02 Ю 8 н/о н/о +35.4 +3.9 14 +32 +32 жарко 1016.8 996.8
04 24.02 Ю 9 н/о н/о +35.9 +2.1 12 +33 +33 жарко 1016.1 996.1
05 24.02 Ю 8 н/о н/о +36.5 +1.3 11 +33 +33 жарко 1015.4 995.4

 

Местоположение метеостанции Tibooburra Airport (Новый Южный Уэльс, Австралия): широта -29.45 долгота 142.05 высота над уровнем моря 177 м.

В архиве по умолчанию представлена погода в Tibooburra Airport за последнюю неделю. Архивные данные за месяц целиком и за предыдущие месяцы, начиная с января 2011 года, Вы можете получить, выбрав интересующий диапазон дат из раскрывающегося списка и нажав кнопку "Ввод!".

Внимание! Время в таблицах - всемирное. Для получения местного времени необходимо прибавить поправку, которая в Tibooburra Airport равна 10 ч.

Смотрите также архив погоды в соседних городах и на ближайших метеорологических станциях:

Погода в White Cliffs Aws (Новый Южный Уэльс, Австралия) (184 км)
Погода в Fowlers Gap Aws (Новый Южный Уэльс, Австралия) (184 км)
Погода в Ballera Gas Field (Квинсленд, Австралия) (227 км)
Погода в Moomba Airport (Южная Австралия, Австралия) (235 км)
Погода в Thargomindah Airport (Квинсленд, Австралия) (237 км)
Погода в Wilcannia Aerodrome (Новый Южный Уэльс, Австралия) (263 км)
Погода в Broken Hill Airport (Новый Южный Уэльс, Австралия) (289 км)
Погода в Leigh Creek Airport (Южная Австралия, Австралия) (372 км)
Погода в Bourke Airport Aws (Новый Южный Уэльс, Австралия) (382 км)
Погода в Marree Aero (Южная Австралия, Австралия) (387 км)

Пояснения к столбцам:

Ветер - указаны скорость ветра в м/с - средняя за 10 мин, порывы в срок и между сроками (в фигурных скобках) и направление, откуда дует ветер: С - северный, СВ - северо-восточный, В - восточный, ЮВ - юго-восточный, Ю - южный, ЮЗ - юго-западный, З - западный, СЗ - северо-западный.
Видимость - горизонтальная дальность видимости в метрах или километрах. При видимости от 1 до 10 км при отсутствии осадков обычно наблюдается дымка, при ухудшении видимости до 1 км и менее - туман. В сухую погоду видимость может ухудшаться дымом, пылью или мглою.
Явления - указаны атмосферные явления, наблюдавшиеся в срок или в последний час перед сроком; фигурными скобками обозначены явления, наблюдавшиеся между сроками (за 1-3 часа до срока); квадратными скобками обозначены град или гололедные отложения с указанием их диаметра в мм.
Облачность - указаны через наклонную черту общая и нижняя облачность в баллах и высота нижней границы облаков в метрах; квадратными скобками обозначены формы облаков: Ci - перистые, Cs - перисто-слоистые, Cc - перисто-кучевые, Ac - высококучевые, As - высокослоистые, Sc - слоисто-кучевые, Ns - слоисто-дождевые, Cu - кучевые, Cb - кучево-дождевые. Подробнее классификацию облаков см. в Атласе облаков (PDF).
T - Температура воздуха - температура, измеренная на высоте 2 м над землей.
Td - Температура точки росы - температура, при понижении до которой содержащийся в воздухе водяной пар достигнет насыщения.
f - Относительная влажность воздуха - влажноcть воздуха, измеренная на высоте 2 м над землей.
Te - Эффективная температура - температура, которую ощущает одетый по сезону человек в тени. Характеристика душности погоды. При расчете учитывается влияние влажности воздуха и скорости ветра на теплоощущения человека.
Tes - Эффективная температура на солнце - температура, которую ощущает человек, с поправкой на солнечный нагрев. Характеристика знойности погоды. Зависит от высоты солнца над горизонтом, облачности и скорости ветра. Ночью, в пасмурную погоду, а также при ветре 12 м/с и более поправка равна нулю.
P - Атмосферное давление - приведенное к уровню моря атмосферное давление.
Po - Атмосферное давление - измеренное на уровне метеостанции атмосферное давление.
Tmin - Минимальная температура - минимум температуры воздуха на высоте 2 м над землей.
Tmax - Максимальная температура - максимум температуры воздуха на высоте 2 м над землей.
R - Количество осадков - Количество выпавших осадков, мм. При наведении курсора мыши на число - период времени, за который выпало указанное количество осадков.
S - Снежный покров - Высота снежного покрова, см. При наведении курсора мыши на число - состояние снежного покрова и степень покрытия местности в баллах.